Location: Mount Kobau Star Party
(49.1167°N, 119.7333°W)
Time: 12:33:35
(UTC-07:00)

ARIANE 6 FM1 Upper Stage - Pass Details

Date: 16 April 2026
Orbit: 526 x 601 km, 62.0° (Epoch: 18 May)

Event Time Altitude Azimuth Distance (km) Brightness Sun altitude
Rises 22:33:38 0° 299° (WNW) 2,696 7.3 -22.4°
Reaches altitude 10° 22:36:56 10° 328° (NNW) 1,791 6.3 -22.8°
Maximum altitude 22:38:53 13° 357° (N) 1,594 5.7 -23.0°
Drops below altitude 10° 22:40:50 10° 26° (NNE) 1,780 5.5 -23.1°
Sets 22:44:05 0° 55° (NE) 2,665 6.1 -23.5°
Enters shadow 22:44:09 - 55° (NE) 2,686 6.1 -23.5°
